Simultaneous Nadir Overpasses (SNOs) Predictions

Prediction of SNOs near US between AQUA and NPP Satellite Orbit:

Table of predicted SNOs near US for the next 10.0 days since TLE Epoch: 12/2/2016
Index Date (AQUA) Time (AQUA) AQUA Lat,Lon Date (NPP) Time (NPP) NPP Lat,Lon Distance(km) Time Diff (sec)
1 12/04/2016 18:16:34 49.94, -80.19 12/04/2016 18:11:05 49.63, -81.80 120.74 329
2 12/04/2016 19:55:28 50.00,-104.93 12/04/2016 19:52:35 49.64,-107.17 165.92 173
3 12/04/2016 21:30:37 36.64,-125.00 12/04/2016 21:30:12 36.14,-127.64 242.97 25
4 12/07/2016 09:22:42 25.30,-112.99 12/07/2016 09:15:49 25.39,-113.50 52.60 413
5 12/10/2016 06:29:57 46.38, -65.03 12/10/2016 06:31:05 46.78, -67.14 167.54 68
6 12/10/2016 08:07:51 49.88, -88.36 12/10/2016 08:11:32 50.40, -90.97 194.96 221
7 12/10/2016 09:46:44 49.89,-113.07 12/10/2016 09:53:00 50.51,-116.29 239.39 376




NCC Satellite Simultaneous Nadir Overpasses (SNOs) Prediction Service
